TimeEDT,TemperatureF,Dew PointF,Humidity,Sea Level PressureIn,VisibilityMPH,Wind Direction,Wind SpeedMPH,Gust SpeedMPH,PrecipitationIn,Events,Conditions,WindDirDegrees,DateUTC
12:35 AM,48.2,33.8,58,29.94,10.0,SSE,5.8,-,N/A,,Overcast,160,2012-10-09 04:35:00
1:35 AM,-9999,-9999,N/A,29.91,10.0,SSE,4.6,-,N/A,,Partly Cloudy,160,2012-10-09 05:35:00
1:55 AM,-9999,-9999,N/A,29.91,10.0,SE,3.5,-,N/A,,Mostly Cloudy,140,2012-10-09 05:55:00
2:15 AM,-9999,-9999,N/A,29.91,10.0,SE,4.6,-,N/A,,Mostly Cloudy,140,2012-10-09 06:15:00
2:55 AM,-9999,-9999,N/A,29.90,10.0,SSE,4.6,-,N/A,,Overcast,150,2012-10-09 06:55:00
3:15 AM,-9999,-9999,N/A,29.89,10.0,SE,5.8,-,N/A,,Overcast,140,2012-10-09 07:15:00
3:55 AM,-9999,-9999,N/A,29.88,10.0,SSW,15.0,20.7,N/A,,Overcast,200,2012-10-09 07:55:00
4:15 AM,-9999,-9999,N/A,29.87,10.0,SSW,12.7,21.9,N/A,,Overcast,200,2012-10-09 08:15:00
4:35 AM,-9999,-9999,N/A,29.86,10.0,SSW,13.8,25.3,N/A,,Overcast,200,2012-10-09 08:35:00
4:55 AM,-9999,-9999,N/A,29.87,10.0,SSW,12.7,18.4,N/A,,Overcast,210,2012-10-09 08:55:00
5:15 AM,-9999,-9999,N/A,29.87,10.0,SSW,13.8,27.6,N/A,,Overcast,200,2012-10-09 09:15:00
5:35 AM,-9999,-9999,N/A,29.87,10.0,SSW,12.7,20.7,N/A,,Mostly Cloudy,210,2012-10-09 09:35:00
5:55 AM,-9999,-9999,N/A,29.87,10.0,SSW,12.7,21.9,N/A,,Mostly Cloudy,210,2012-10-09 09:55:00
6:15 AM,53.6,37.4,54,29.87,10.0,SSW,11.5,24.2,N/A,,Mostly Cloudy,200,2012-10-09 10:15:00
6:35 AM,53.6,39.2,58,29.87,10.0,South,9.2,20.7,N/A,,Partly Cloudy,190,2012-10-09 10:35:00
6:55 AM,-9999,-9999,N/A,29.86,10.0,SSW,10.4,16.1,N/A,,Scattered Clouds,200,2012-10-09 10:55:00
7:55 AM,-9999,-9999,N/A,29.87,10.0,SSW,6.9,16.1,N/A,,Overcast,200,2012-10-09 11:55:00
8:15 AM,-9999,-9999,N/A,29.86,10.0,South,6.9,-,N/A,,Overcast,190,2012-10-09 12:15:00
8:35 AM,51.8,42.8,71,29.85,10.0,SE,6.9,-,N/A,,Overcast,130,2012-10-09 12:35:00
8:55 AM,-9999,-9999,N/A,29.86,10.0,SE,3.5,-,N/A,,Overcast,140,2012-10-09 12:55:00
9:15 AM,-9999,-9999,N/A,29.86,10.0,SE,4.6,-,N/A,,Overcast,140,2012-10-09 13:15:00
9:35 AM,48.2,42.8,82,29.86,10.0,SE,3.5,-,N/A,,Overcast,140,2012-10-09 13:35:00
9:55 AM,48.2,42.8,82,29.86,10.0,SE,3.5,-,N/A,,Mostly Cloudy,140,2012-10-09 13:55:00
10:15 AM,51.8,44.6,76,29.86,10.0,SSE,5.8,-,N/A,,Mostly Cloudy,160,2012-10-09 14:15:00
10:35 AM,55.4,42.8,63,29.85,10.0,SSW,10.4,21.9,N/A,,Mostly Cloudy,200,2012-10-09 14:35:00
10:55 AM,55.4,42.8,63,29.85,10.0,SSW,16.1,21.9,N/A,,Mostly Cloudy,210,2012-10-09 14:55:00
11:15 AM,-9999,-9999,N/A,29.84,10.0,SSW,13.8,21.9,N/A,,Overcast,200,2012-10-09 15:15:00
11:35 AM,-9999,-9999,N/A,29.83,10.0,South,12.7,17.3,N/A,,Overcast,190,2012-10-09 15:35:00
11:55 AM,-9999,-9999,N/A,29.83,10.0,SSW,11.5,21.9,N/A,,Mostly Cloudy,210,2012-10-09 15:55:00
12:15 PM,-9999,-9999,N/A,29.82,10.0,SSW,12.7,20.7,N/A,,Scattered Clouds,200,2012-10-09 16:15:00
12:35 PM,-9999,-9999,N/A,29.82,10.0,SSW,13.8,25.3,N/A,,Mostly Cloudy,210,2012-10-09 16:35:00
12:55 PM,57.2,42.8,59,29.81,10.0,SSW,10.4,18.4,N/A,,Overcast,200,2012-10-09 16:55:00
1:15 PM,-9999,-9999,N/A,29.81,10.0,SSW,12.7,24.2,N/A,,Overcast,210,2012-10-09 17:15:00
1:35 PM,57.2,42.8,59,29.80,10.0,SSW,17.3,26.5,N/A,,Overcast,210,2012-10-09 17:35:00
1:55 PM,-9999,-9999,N/A,29.79,10.0,SW,16.1,23.0,N/A,,Overcast,220,2012-10-09 17:55:00
2:35 PM,-9999,-9999,N/A,29.78,10.0,SSW,11.5,25.3,N/A,,Overcast,210,2012-10-09 18:35:00
2:55 PM,-9999,-9999,N/A,29.77,10.0,SSW,17.3,26.5,N/A,,Overcast,200,2012-10-09 18:55:00
3:15 PM,-9999,-9999,N/A,29.77,10.0,SSW,15.0,28.8,N/A,,Overcast,210,2012-10-09 19:15:00
3:35 PM,55.4,44.6,67,29.77,10.0,SSW,15.0,26.5,N/A,,Mostly Cloudy,210,2012-10-09 19:35:00
3:55 PM,-9999,-9999,N/A,29.75,10.0,SSW,15.0,23.0,N/A,,Overcast,200,2012-10-09 19:55:00
4:15 PM,-9999,-9999,N/A,29.74,10.0,SW,18.4,29.9,N/A,,Overcast,220,2012-10-09 20:15:00
4:35 PM,-9999,-9999,N/A,29.74,10.0,SSW,13.8,26.5,N/A,,Overcast,210,2012-10-09 20:35:00
4:55 PM,-9999,-9999,N/A,29.74,10.0,SSW,16.1,28.8,N/A,,Overcast,210,2012-10-09 20:55:00
5:15 PM,-9999,-9999,N/A,29.74,10.0,SSW,20.7,27.6,N/A,,Mostly Cloudy,210,2012-10-09 21:15:00
5:35 PM,-9999,-9999,N/A,29.74,10.0,SSW,12.7,26.5,N/A,,Overcast,210,2012-10-09 21:35:00
5:55 PM,-9999,-9999,N/A,29.74,10.0,SW,12.7,23.0,N/A,,Overcast,220,2012-10-09 21:55:00
6:15 PM,-9999,-9999,N/A,29.74,10.0,SW,10.4,24.2,N/A,,Overcast,220,2012-10-09 22:15:00
6:35 PM,-9999,-9999,N/A,29.74,6.0,WNW,20.7,28.8,0.07,,Mostly Cloudy,290,2012-10-09 22:35:00
6:55 PM,-9999,-9999,N/A,29.75,10.0,West,21.9,26.5,0.07,,Overcast,280,2012-10-09 22:55:00
7:15 PM,-9999,-9999,N/A,29.76,10.0,West,13.8,-,N/A,,Overcast,280,2012-10-09 23:15:00
7:35 PM,-9999,-9999,N/A,29.77,10.0,West,20.7,26.5,N/A,,Overcast,270,2012-10-09 23:35:00
7:55 PM,-9999,-9999,N/A,29.78,10.0,West,25.3,34.5,N/A,,Overcast,280,2012-10-09 23:55:00
8:15 PM,-9999,-9999,N/A,29.79,10.0,WNW,20.7,31.1,N/A,,Overcast,300,2012-10-10 00:15:00
8:35 PM,-9999,-9999,N/A,29.80,9.0,NW,15.0,26.5,0.03,,Overcast,310,2012-10-10 00:35:00
8:55 PM,-9999,-9999,N/A,29.81,9.0,WNW,19.6,26.5,0.06,,Overcast,300,2012-10-10 00:55:00
9:15 PM,-9999,-9999,N/A,29.81,9.0,WNW,17.3,23.0,0.06,,Overcast,290,2012-10-10 01:15:00
9:35 PM,-9999,-9999,N/A,29.81,10.0,WNW,13.8,-,0.12,,Overcast,290,2012-10-10 01:35:00
9:55 PM,-9999,-9999,N/A,29.81,10.0,WNW,13.8,20.7,0.16,,Overcast,300,2012-10-10 01:55:00
10:15 PM,-9999,-9999,N/A,29.81,10.0,NW,8.1,19.6,0.03,,Overcast,310,2012-10-10 02:15:00
10:35 PM,-9999,-9999,N/A,29.81,10.0,WNW,3.5,-,0.04,,Overcast,290,2012-10-10 02:35:00
10:55 PM,-9999,-9999,N/A,29.81,7.0,NW,13.8,23.0,0.06,,Overcast,310,2012-10-10 02:55:00
11:15 PM,-9999,-9999,N/A,29.82,8.0,West,11.5,-,0.02,,Overcast,280,2012-10-10 03:15:00
11:35 PM,-9999,-9999,N/A,29.81,9.0,WSW,6.9,18.4,0.04,,Overcast,250,2012-10-10 03:35:00